Meteo pe oră la Bolshoe Kurapovo

Astăzi, 12 Mai, Miercuri

Timp Temperatura Precipitaţii Vânt Presiune Umiditate
00:00 +11°C° 0 mm 1 m/s 758 mmHg 93%
01:00 +11°C° 0 mm 1 m/s 758 mmHg 92%
02:00 +11°C° 0 mm 1 m/s 758 mmHg 91%
03:00 +10°C° 0 mm 0 m/s 758 mmHg 89%
04:00 +11°C° 0 mm 1 m/s 758 mmHg 87%
05:00 +11°C° 0 mm 1 m/s 758 mmHg 86%
06:00 +12°C° 0 mm 1 m/s 758 mmHg 84%
07:00 +13°C° 0 mm 1 m/s 758 mmHg 79%
08:00 +15°C° 0 mm 1 m/s 757 mmHg 73%
09:00 +16°C° 0 mm 2 m/s 757 mmHg 68%
10:00 +17°C° 0.2 mm 2 m/s 757 mmHg 70%
11:00 +18°C° 0.2 mm 3 m/s 756 mmHg 73%
12:00 +18°C° 0.2 mm 3 m/s 755 mmHg 75%
13:00 +19°C° 0.2 mm 3 m/s 755 mmHg 72%
14:00 +19°C° 0.2 mm 4 m/s 754 mmHg 69%
15:00 +19°C° 0.2 mm 4 m/s 754 mmHg 66%
16:00 +18°C° 1.3 mm 4 m/s 754 mmHg 75%
17:00 +15°C° 1.3 mm 4 m/s 754 mmHg 85%
18:00 +14°C° 1.3 mm 5 m/s 753 mmHg 94%
19:00 +14°C° 0.5 mm 4 m/s 753 mmHg 94%
20:00 +13°C° 0.5 mm 4 m/s 754 mmHg 94%
21:00 +13°C° 0.5 mm 4 m/s 754 mmHg 94%
22:00 +12°C° 0.1 mm 3 m/s 754 mmHg 95%
23:00 +11°C° 0.1 mm 3 m/s 754 mmHg 96%

Mâine, 13 Mai, Joi

Timp Temperatura Precipitaţii Vânt Presiune Umiditate
00:00 +10°C° 0.1 mm 2 m/s 754 mmHg 97%
01:00 +11°C° 0 mm 1 m/s 754 mmHg 97%
02:00 +10°C° 0 mm 1 m/s 754 mmHg 97%
03:00 +10°C° 0 mm 1 m/s 754 mmHg 97%
04:00 +10°C° 0 mm 1 m/s 754 mmHg 97%
05:00 +10°C° 0 mm 1 m/s 754 mmHg 96%
06:00 +11°C° 0 mm 1 m/s 754 mmHg 96%
07:00 +12°C° 0 mm 2 m/s 754 mmHg 90%
08:00 +14°C° 0 mm 2 m/s 754 mmHg 84%
09:00 +16°C° 0 mm 3 m/s 754 mmHg 78%
10:00 +16°C° 0.6 mm 2 m/s 753 mmHg 80%
11:00 +15°C° 0.6 mm 2 m/s 753 mmHg 82%
12:00 +15°C° 0.6 mm 2 m/s 752 mmHg 84%
13:00 +16°C° 0.6 mm 2 m/s 752 mmHg 86%
14:00 +16°C° 0.6 mm 3 m/s 751 mmHg 87%
15:00 +16°C° 0.6 mm 3 m/s 751 mmHg 89%
16:00 +17°C° 0.1 mm 3 m/s 750 mmHg 88%
17:00 +17°C° 0.1 mm 3 m/s 750 mmHg 86%
18:00 +18°C° 0.1 mm 3 m/s 750 mmHg 85%
19:00 +14°C° 0.4 mm 3 m/s 750 mmHg 88%
20:00 +13°C° 0.4 mm 2 m/s 750 mmHg 91%
21:00 +11°C° 0.4 mm 1 m/s 751 mmHg 94%
22:00 +11°C° 0 mm 1 m/s 751 mmHg 94%
23:00 +10°C° 0 mm 1 m/s 751 mmHg 93%

Poimâine, 14 Mai, Vineri

Timp Temperatura Precipitaţii Vânt Presiune Umiditate
00:00 +10°C° 0 mm 1 m/s 751 mmHg 93%
01:00 +10°C° 0 mm 1 m/s 751 mmHg 94%
02:00 +9°C° 0 mm 1 m/s 752 mmHg 94%
03:00 +9°C° 0 mm 1 m/s 752 mmHg 95%
04:00 +10°C° 0 mm 1 m/s 752 mmHg 94%
05:00 +10°C° 0 mm 1 m/s 752 mmHg 94%
06:00 +11°C° 0 mm 1 m/s 753 mmHg 93%
07:00 +13°C° 0 mm 1 m/s 753 mmHg 88%
08:00 +14°C° 0 mm 1 m/s 753 mmHg 82%
09:00 +16°C° 0 mm 1 m/s 753 mmHg 77%
10:00 +19°C° 0 mm 1 m/s 752 mmHg 72%
11:00 +19°C° 0 mm 2 m/s 752 mmHg 68%
12:00 +20°C° 0 mm 2 m/s 752 mmHg 63%
13:00 +22°C° 0.1 mm 3 m/s 752 mmHg 61%
14:00 +24°C° 0.1 mm 3 m/s 751 mmHg 58%
15:00 +25°C° 0.1 mm 3 m/s 751 mmHg 56%
16:00 +24°C° 0.4 mm 3 m/s 751 mmHg 63%
17:00 +22°C° 0.4 mm 3 m/s 750 mmHg 71%
18:00 +21°C° 0.4 mm 3 m/s 750 mmHg 79%
19:00 +20°C° 1.5 mm 3 m/s 749 mmHg 83%
20:00 +19°C° 1.5 mm 3 m/s 749 mmHg 87%
21:00 +18°C° 1.5 mm 3 m/s 748 mmHg 92%
22:00 +17°C° 1.2 mm 2 m/s 748 mmHg 93%
23:00 +17°C° 1.2 mm 2 m/s 748 mmHg 95%

15 Mai, Sâmbătă

Timp Temperatura Precipitaţii Vânt Presiune Umiditate
00:00 +16°C° 1.2 mm 2 m/s 748 mmHg 96%
01:00 +16°C° 0.2 mm 2 m/s 748 mmHg 96%
02:00 +16°C° 0.2 mm 2 m/s 748 mmHg 96%
03:00 +16°C° 0.2 mm 2 m/s 748 mmHg 96%
04:00 +16°C° 0.3 mm 2 m/s 748 mmHg 95%
05:00 +16°C° 0.3 mm 3 m/s 748 mmHg 95%
06:00 +17°C° 0.3 mm 3 m/s 749 mmHg 94%
07:00 +17°C° 0.2 mm 3 m/s 748 mmHg 91%
08:00 +18°C° 0.2 mm 3 m/s 747 mmHg 87%
09:00 +19°C° 0.2 mm 3 m/s 747 mmHg 84%
10:00 +20°C° 0.1 mm 4 m/s 747 mmHg 80%
11:00 +22°C° 0.1 mm 4 m/s 747 mmHg 76%
12:00 +23°C° 0.1 mm 4 m/s 747 mmHg 72%
13:00 +23°C° 0.4 mm 4 m/s 747 mmHg 71%
14:00 +23°C° 0.4 mm 4 m/s 746 mmHg 70%
15:00 +23°C° 0.4 mm 4 m/s 746 mmHg 69%
16:00 +23°C° 0.4 mm 4 m/s 746 mmHg 72%
17:00 +22°C° 0.4 mm 4 m/s 746 mmHg 76%
18:00 +21°C° 0.4 mm 4 m/s 746 mmHg 79%
19:00 +20°C° 0.2 mm 4 m/s 746 mmHg 84%
20:00 +19°C° 0.2 mm 3 m/s 746 mmHg 89%
21:00 +17°C° 0.2 mm 3 m/s 746 mmHg 94%
22:00 +16°C° 0 mm 2 m/s 747 mmHg 94%
23:00 +16°C° 0 mm 2 m/s 747 mmHg 95%

16 Mai, Duminică

Timp Temperatura Precipitaţii Vânt Presiune Umiditate
00:00 +15°C° 0 mm 2 m/s 747 mmHg 96%
01:00 +15°C° 0 mm 2 m/s 747 mmHg 96%
02:00 +14°C° 0 mm 2 m/s 748 mmHg 96%
03:00 +13°C° 0 mm 2 m/s 748 mmHg 96%
04:00 +14°C° 0 mm 2 m/s 748 mmHg 95%
05:00 +14°C° 0 mm 2 m/s 748 mmHg 94%
06:00 +13°C° 0 mm 3 m/s 748 mmHg 92%
07:00 +16°C° 0 mm 3 m/s 749 mmHg 84%
08:00 +17°C° 0 mm 3 m/s 749 mmHg 76%
09:00 +19°C° 0 mm 3 m/s 749 mmHg 67%
10:00 +20°C° 0 mm 3 m/s 749 mmHg 63%
11:00 +21°C° 0 mm 3 m/s 750 mmHg 58%
12:00 +22°C° 0 mm 3 m/s 750 mmHg 54%
13:00 +22°C° 0 mm 3 m/s 750 mmHg 53%
14:00 +22°C° 0 mm 3 m/s 750 mmHg 52%
15:00 +24°C° 0 mm 3 m/s 750 mmHg 51%
16:00 +22°C° 0 mm 3 m/s 750 mmHg 55%
17:00 +22°C° 0 mm 3 m/s 750 mmHg 58%
18:00 +21°C° 0 mm 2 m/s 750 mmHg 62%
19:00 +19°C° 0 mm 2 m/s 750 mmHg 69%
20:00 +18°C° 0 mm 1 m/s 751 mmHg 76%
21:00 +15°C° 0 mm 1 m/s 751 mmHg 82%
22:00 +15°C° 0 mm 1 m/s 751 mmHg 84%
23:00 +14°C° 0 mm 1 m/s 751 mmHg 86%

17 Mai, Luni

Timp Temperatura Precipitaţii Vânt Presiune Umiditate
00:00 +14°C° 0 mm 1 m/s 751 mmHg 87%
01:00 +13°C° 0 mm 2 m/s 752 mmHg 89%
02:00 +13°C° 0 mm 2 m/s 752 mmHg 91%
03:00 +12°C° 0 mm 2 m/s 752 mmHg 93%
04:00 +13°C° 0 mm 2 m/s 752 mmHg 91%
05:00 +14°C° 0 mm 2 m/s 752 mmHg 88%
06:00 +14°C° 0 mm 2 m/s 752 mmHg 86%
07:00 +16°C° 0 mm 2 m/s 752 mmHg 78%
08:00 +19°C° 0 mm 3 m/s 752 mmHg 70%
09:00 +21°C° 0 mm 3 m/s 752 mmHg 62%
10:00 +22°C° 0 mm 3 m/s 752 mmHg 59%
11:00 +25°C° 0 mm 3 m/s 752 mmHg 56%
12:00 +27°C° 0 mm 4 m/s 751 mmHg 52%
13:00 +27°C° 0 mm 3 m/s 751 mmHg 51%
14:00 +28°C° 0 mm 3 m/s 751 mmHg 49%
15:00 +29°C° 0 mm 3 m/s 751 mmHg 47%
16:00 +28°C° 0 mm 3 m/s 751 mmHg 52%
17:00 +27°C° 0 mm 3 m/s 750 mmHg 57%
18:00 +27°C° 0 mm 2 m/s 750 mmHg 61%
19:00 +25°C° 0 mm 2 m/s 750 mmHg 70%
20:00 +23°C° 0 mm 2 m/s 750 mmHg 78%
21:00 +20°C° 0 mm 3 m/s 750 mmHg 86%
22:00 +19°C° 0 mm 2 m/s 750 mmHg 89%
23:00 +18°C° 0 mm 2 m/s 750 mmHg 91%
Arată mai mult

Formular de consimțământ

Meteoprog și furnizorii noștri de servicii pot stoca și accesa date personale, precum cookies, identificatori de dispozitiv sau alte tehnologii similare pe dispozitivul dumneavoastră și procesa astfel de date pentru a personaliza conținutul și reclamele, dar și pentru a oferi caracteristici de social media și pentru a analiza traficul.

  • Stocarea și/sau accesarea informațiilor pe dispozitivul dumneavoastră

    Cookies, identificatori de dispozitiv sau alte informații pot fi stocate sau accesate pe dispozitiv în scopurile indicate mai sus.

  • Reclame și conținut personalizat, evaluarea reclamelor și a conținutului, informații despre audiențe și dezvoltarea produselor

    Reclamele și conținutul pot fi personalizate pe baza unui profil. Pot fi adăugate date suplimentare pentru a personaliza mai bine reclamele și conținutul. Performanța reclamelor și conținutului poate fi măsurată. Pot fi obținute informații despre utilizatorii care au văzut reclamele și conținutul. Aceste date pot fi utilizate pentru a dezvolta sau îmbunătăți experiența utilizatorilor, sistemele și software-ul.

Dând clic pe ‘Sunt de acord’, permiteți utilizarea cookie-urilor menționate, a identificatorilor de dispozitiv, balizelor web sau altor tehnologii similare. Setările pot fi modificate din browser-ul dispozitivului dumneavoastră.

În anumite scopuri, interesele legitime pot prima asupra consimțământului. Puteți citi mai multe informații în acest sens în Politica privind Confidențialitatea Datelor și Cookie.